This is the latest recevied weather packets stored in our database for station/object SP7WMI-13. If no packets are shown the sender has not sent any weather packets the latest 10 day(s).
| Time | Temp. | Humidity | Pressure | Rain* | Wind** | Luminosity | Snow |
|---|---|---|---|---|---|---|---|
| 1777927014 | 20° C | 49% | 1010.3 hPa | 0 mm | - | - | - |
| 1777926111 | 20.56° C | 47% | 1010.4 hPa | 0 mm | - | - | - |
| 1777925208 | 20.56° C | 46% | 1010.4 hPa | 0 mm | - | - | - |
| 1777924305 | 21.11° C | 45% | 1010.2 hPa | 0 mm | - | - | - |
| 1777923402 | 21.11° C | 44% | 1010.2 hPa | 0 mm | - | - | - |
| 1777922499 | 21.67° C | 41% | 1009.9 hPa | 0 mm | - | - | - |
| 1777921596 | 22.22° C | 40% | 1009.9 hPa | 0 mm | - | - | - |
| 1777920693 | 22.78° C | 39% | 1009.8 hPa | 0 mm | - | - | - |
| 1777919790 | 23.33° C | 37% | 1009.8 hPa | 0 mm | - | - | - |
| 1777918887 | 23.89° C | 35% | 1009.7 hPa | 0 mm | - | - | - |
| 1777917984 | 23.89° C | 34% | 1009.7 hPa | 0 mm | - | - | - |
| 1777917081 | 24.44° C | 33% | 1009.7 hPa | 0 mm | - | - | - |
| 1777916178 | 24.44° C | 32% | 1009.6 hPa | 0 mm | - | - | - |
| 1777915275 | 25.56° C | 31% | 1009.6 hPa | 0 mm | - | - | - |
| 1777914372 | 26.11° C | 31% | 1009.4 hPa | 0 mm | - | - | - |
| 1777913468 | 26.11° C | 30% | 1009.5 hPa | 0 mm | - | - | - |
| 1777912566 | 26.67° C | 30% | 1009.5 hPa | 0 mm | - | - | - |
| 1777911662 | 25.56° C | 31% | 1009.5 hPa | 0 mm | - | - | - |
| 1777910759 | 26.11° C | 31% | 1009.6 hPa | 0 mm | - | - | - |
| 1777909856 | 26.11° C | 30% | 1009.7 hPa | 0 mm | - | - | - |
| 1777908955 | 26.11° C | 31% | 1009.8 hPa | 0 mm | - | - | - |
| 1777908050 | 26.67° C | 30% | 1009.7 hPa | 0 mm | - | - | - |
| 1777907147 | 26.67° C | 30% | 1009.8 hPa | 0 mm | - | - | - |
| 1777906244 | 26.67° C | 29% | 1009.9 hPa | 0 mm | - | - | - |
| 1777905341 | 26.67° C | 29% | 1010 hPa | 0 mm | - | - | - |
* Rain since midnight (hover to see other rain measurements)
** Current wind speed in m/s (hover to see current wind gust speed)